STARLINK-4679, 53782

Orbit data source: Space-Track

STARLINK-4679, 53782 is a payload satellite owned by SpaceX/Seattle (US) in LEO that was launched on Sun, 11 Sep 2022 UTC via an FALCON 9 launch vehicle from the Air Force Eastern Test Range (AFETR). Payload-class satellites include a variety of spacecraft equipped with specific instruments for various scientific and technological missions. These include communications satellites like Starlink; space stations such as the ISS; scientific satellites like the Hubble; Earth observation satellites from companies like Planet Labs, Umbra, and HawkEye 360; GPS; miniature CubeSats for education and research; and military/defense satellites.

Loading next visibility...
Identifier
53782, 2022-111K
Orbit
LEO
Country
Flag of USUS
Related business
Manufacturer
SpaceX/Seattle
Mission
Operational Commercial Communications
Bus & Motor
STARLINK, Unknown motor
Mass
305 kg wet, ~290 kg dry
Launch date (UTC)
2022-09-11 (3 years ago)
Launch vehicle
FALCON 9
Launch site
Air Force Eastern Test Range (AFETR)
Object type
Payload
Rocket body
Debris
Shape & HBR
Box + 1 Pan, 10.1 m
Radar Cross Section
13.562 m², Large (>1 m²)

Expand to show TLE details & history
Last TLE update: 6 hours ago

TLE from 6 hours ago
0 STARLINK-4679
1 53782U 22111K   26035.49392101 -.00000385  00000-0 -60981-5 0  9994
2 53782  53.2181  63.2160 0001476 107.7014 252.4139 15.08837279188680
Epoch: 2026-02-04T11:51Z
TLE epoch observation values (Epoch: 2026-02-04T11:51:14.775Z)
Latitude
-0.00004°
Longitude
110.74471°
Altitude
540.958 km
Speed
7.593 km/s
True Right ascension
04h 12m 51s
True Declination
0° 00' 00"
Sunlit
Object was in daylight at epoch
Visualization orbit readout
Latitude
Unknown
Longitude
Unknown
Altitude
Unknown
Speed
Unknown
Apparent Right ascension
Unknown
Apparent Declination
Unknown
Sunlit
N/A
Visualization observer readout
Local Sidereal Time
20:17:16
Azimuth
Unknown
Elevation
Unknown
Doppler factor
Unknown
Orbital elements
Apogee altitude
541.018 km
Perigee altitude
538.975 km
Semi-major axis
6,918.134 km
Eccentricity
0.00015
Inclination
53.2181°
RAAN
63.216°
Arg. of periapsis
107.7014°
True anomaly
252.39778°
Mean anomaly
252.4139°
Eccentric anomaly
252.40584°
Mean motion
3.7719 °/min
Orbital period
95.44 mins
BSTAR
-0.0000060981
Loading maneuver chart data...
Computing Atmospheric mass density...
Loading historical data...
Loading historical data...
Loading historical data...
Loading historical data...
Loading historical data...
Loading historical data...
Loading historical data...

Documentation

Showing up to 5 results
|